,,Stat6,,Stat2,,Stat8,,Stat9,,Stat10,,Wind1,,Wind1,
time,status,PA1M_AVG,status,PR1M_SUM,status,RH1M_AVG,status,SR1M_AVG,status,TA1M_AVG,status,W1dAve1m,status,W1sAve1m,
2007-02-15, 17:08:00,VALID,920.309,VALID,0,VALID,86.754,VALID,259.263,VALID,24.203,VALID,143,VALID,0.326349,
2007-02-15, 17:09:00,VALID,920.311,VALID,0,VALID,86.0444,VALID,809.935,VALID,24.1319,VALID,144,VALID,0.282885,
2007-02-15, 17:10:00,VALID,920.315,VALID,0,VALID,86.8722,VALID,392.444,VALID,24.4106,VALID,149,VALID,0.123476,
2007-02-15, 17:11:00,VALID,920.299,VALID,0,VALID,86.4233,VALID,235.049,VALID,24.6422,VALID,149,VALID,0.0181686,
2007-02-15, 17:12:00,VALID,920.287,VALID,0,VALID,85.7481,VALID,218.985,VALID,24.7685,VALID,197,VALID,0.395312,
2007-02-15, 17:13:00,VALID,920.284,VALID,0,VALID,84.4078,VALID,220.615,VALID,24.8364,VALID,239,VALID,0.404948,
2007-02-15, 17:14:00,VALID,920.263,VALID,0,VALID,82.8857,VALID,219.596,VALID,24.8464,VALID,285,VALID,0.217685,
2007-02-15, 17:15:00,VALID,920.276,VALID,0,VALID,82.021,VALID,226.643,VALID,24.8722,VALID,293,VALID,0.155678,
2007-02-15, 17:16:00,VALID,920.257,VALID,0,VALID,82.1444,VALID,229.156,VALID,24.9042,VALID,293,VALID,0.440696,
2007-02-15, 17:17:00,VALID,920.257,VALID,0,VALID,82.8005,VALID,225.013,VALID,25.0143,VALID,284,VALID,0.821456,
2007-02-15, 17:18:00,VALID,920.26,VALID,0,VALID,82.6734,VALID,220.089,VALID,25.0983,VALID,272,VALID,0.838728,
2007-02-15, 17:19:00,VALID,920.254,VALID,0,VALID,82.1151,VALID,221.922,VALID,25.0886,VALID,273,VALID,0.764509,
2007-02-15, 17:20:00,VALID,920.239,VALID,0,VALID,82.6835,VALID,234.998,VALID,25.0105,VALID,264,VALID,0.389382,
2007-02-15, 17:21:00,VALID,920.24,VALID,0,VALID,81.08,VALID,257.039,VALID,24.8596,VALID,196,VALID,0.488377,
2007-02-15, 17:22:00,VALID,920.24,VALID,0,VALID,81.3903,VALID,364.748,VALID,24.7045,VALID,126,VALID,0.293255,
2007-02-15, 17:23:00,VALID,920.233,VALID,0,VALID,82.016,VALID,373.069,VALID,24.7298,VALID,124,VALID,0.348336,
2007-02-15, 17:24:00,VALID,920.226,VALID,0,VALID,81.3255,VALID,607.982,VALID,24.8361,VALID,102,VALID,0.493278,
2007-02-15, 17:25:00,VALID,920.228,VALID,0,VALID,80.9249,VALID,820.293,VALID,24.9433,VALID,144,VALID,0.648638,
2007-02-15, 17:26:00,VALID,920.231,VALID,0,VALID,79.2934,VALID,856.411,VALID,24.9177,VALID,133,VALID,0.598899,
2007-02-15, 17:27:00,VALID,920.212,VALID,0,VALID,79.0404,VALID,980.371,VALID,25.0169,VALID,137,VALID,1.19371,
2007-02-15, 17:28:00,VALID,920.207,VALID,0,VALID,79.3151,VALID,893.226,VALID,25.0104,VALID,145,VALID,1.27639,
2007-02-15, 17:29:00,VALID,920.195,VALID,0,VALID,79.2388,VALID,986.892,VALID,25.1968,VALID,142,VALID,1.10332,
2007-02-15, 17:30:00,VALID,920.19,VALID,0,VALID,77.7472,VALID,961.811,VALID,25.309,VALID,139,VALID,1.32106,
2007-02-15, 17:31:00,VALID,920.163,VALID,0,VALID,75.7864,VALID,956.683,VALID,25.2679,VALID,135,VALID,1.74492,
2007-02-15, 17:32:00,VALID,920.136,VALID,0,VALID,75.443,VALID,953.168,VALID,25.0447,VALID,136,VALID,1.99657,
2007-02-15, 17:33:00,VALID,920.115,VALID,0,VALID,75.986,VALID,878.435,VALID,24.9348,VALID,139,VALID,1.74647,
2007-02-15, 17:34:00,VALID,920.107,VALID,0,VALID,77.5335,VALID,916.829,VALID,24.9736,VALID,144,VALID,1.26465,
2007-02-15, 17:35:00,VALID,920.084,VALID,0,VALID,76.3942,VALID,848.006,VALID,25.0076,VALID,143,VALID,0.832403,
2007-02-15, 17:36:00,VALID,920.064,VALID,0,VALID,77.9951,VALID,883.326,VALID,25.172,VALID,151,VALID,0.657912,
2007-02-15, 17:37:00,VALID,920.049,VALID,0,VALID,77.6416,VALID,682.324,VALID,25.4395,VALID,166,VALID,0.890807,
2007-02-15, 17:38:00,VALID,920.032,VALID,0,VALID,75.719,VALID,491.714,VALID,25.5752,VALID,145,VALID,0.758929,
2007-02-15, 17:39:00,VALID,920.018,VALID,0,VALID,76.2581,VALID,505.57,VALID,25.7177,VALID,142,VALID,0.754439,
2007-02-15, 17:40:00,VALID,920.018,VALID,0,VALID,73.5115,VALID,389.676,VALID,25.6689,VALID,169,VALID,1.04241,
2007-02-15, 17:41:00,VALID,919.999,VALID,0,VALID,73.3729,VALID,233.011,VALID,25.3458,VALID,170,VALID,1.42813,
2007-02-15, 17:42:00,VALID,919.994,VALID,0,VALID,75.0933,VALID,387.842,VALID,25.0425,VALID,205,VALID,1.0198,
2007-02-15, 17:43:00,VALID,919.984,VALID,0,VALID,76.9181,VALID,238.411,VALID,25.0741,VALID,202,VALID,0.690972,
2007-02-15, 17:44:00,VALID,919.972,VALID,0,VALID,74.8428,VALID,254.288,VALID,25.09,VALID,126,VALID,0.769886,
2007-02-15, 17:45:00,VALID,919.981,VALID,0,VALID,75.5575,VALID,306.096,VALID,25.1636,VALID,120,VALID,0.408913,
2007-02-15, 17:46:00,VALID,919.974,VALID,0,VALID,76.2123,VALID,517.983,VALID,25.3355,VALID,121,VALID,0.212358,
2007-02-15, 17:47:00,VALID,919.975,VALID,0,VALID,76.9702,VALID,324.079,VALID,25.5519,VALID,126,VALID,0.309593,
2007-02-15, 17:48:00,VALID,919.983,VALID,0,VALID,74.9725,VALID,307.608,VALID,25.5319,VALID,171,VALID,0.897978,
2007-02-15, 17:49:00,VALID,919.987,VALID,0,VALID,74.2159,VALID,314.757,VALID,25.3549,VALID,156,VALID,0.495206,
2007-02-15, 17:50:00,VALID,919.982,VALID,0,VALID,74.9446,VALID,339.107,VALID,25.394,VALID,147,VALID,0.0635653,
2007-02-15, 17:51:00,VALID,919.981,VALID,0,VALID,75.1747,VALID,351.52,VALID,25.5807,VALID,134,VALID,0.710417,
2007-02-15, 17:52:00,VALID,919.976,VALID,0,VALID,74.9102,VALID,357.531,VALID,25.477,VALID,136,VALID,0.869284,
2007-02-15, 17:53:00,VALID,919.981,VALID,0,VALID,75.513,VALID,372.712,VALID,25.3581,VALID,129,VALID,0.638021,
2007-02-15, 17:54:00,VALID,919.976,VALID,0,VALID,76.7159,VALID,393.633,VALID,25.3794,VALID,114,VALID,0.498302,
2007-02-15, 17:55:00,VALID,919.971,VALID,0,VALID,76.1831,VALID,456.92,VALID,25.4583,VALID,123,VALID,0.755907,
2007-02-15, 17:56:00,VALID,919.97,VALID,0,VALID,74.9522,VALID,460.214,VALID,25.4973,VALID,150,VALID,0.776215,
2007-02-15, 17:57:00,VALID,919.943,VALID,0,VALID,76.0127,VALID,428.681,VALID,25.4857,VALID,137,VALID,0.989281,
2007-02-15, 17:58:00,VALID,919.923,VALID,0,VALID,76.1132,VALID,396.044,VALID,25.5603,VALID,140,VALID,0.982329,
2007-02-15, 17:59:00,VALID,919.907,VALID,0,VALID,76.0954,VALID,357.599,VALID,25.5862,VALID,152,VALID,0.459985,
2007-02-15, 18:00:00,VALID,919.889,VALID,0,VALID,75.9504,VALID,326.711,VALID,25.7212,VALID,153,VALID,0.136541,
2007-02-15, 18:01:00,VALID,919.886,VALID,0,VALID,76.763,VALID,308.745,VALID,25.97,VALID,261,VALID,0.63548,
2007-02-15, 18:02:00,VALID,919.868,VALID,0,VALID,75.9529,VALID,302.463,VALID,26.1581,VALID,267,VALID,0.53218,
2007-02-15, 18:03:00,VALID,919.865,VALID,0,VALID,75.4888,VALID,298.981,VALID,26.3294,VALID,268,VALID,0.432413,
2007-02-15, 18:04:00,VALID,919.856,VALID,0,VALID,73.055,VALID,297.98,VALID,26.4167,VALID,296,VALID,1.11007,
2007-02-15, 18:05:00,VALID,919.851,VALID,0,VALID,74.9407,VALID,296.825,VALID,26.3646,VALID,280,VALID,0.858865,
2007-02-15, 18:06:00,VALID,919.826,VALID,0,VALID,75.1874,VALID,297.351,VALID,26.4199,VALID,272,VALID,0.710537,
2007-02-15, 18:07:00,VALID,919.815,VALID,0,VALID,72.6951,VALID,297.606,VALID,26.4289,VALID,152,VALID,0.314503,
2007-02-15, 18:08:00,VALID,919.801,VALID,0,VALID,73.2699,VALID,303.413,VALID,26.468,VALID,112,VALID,0.201079,
2007-02-15, 18:09:00,VALID,919.792,VALID,0,VALID,73.7836,VALID,325.081,VALID,26.4651,VALID,114,VALID,0.105168,
2007-02-15, 18:10:00,VALID,919.806,VALID,0,VALID,72.6976,VALID,360.028,VALID,26.4099,VALID,113,VALID,0.140278,
2007-02-15, 18:11:00,VALID,919.788,VALID,0,VALID,70.8309,VALID,731.84,VALID,26.4648,VALID,114,VALID,0.26944,
2007-02-15, 18:12:00,VALID,919.779,VALID,0,VALID,70.4278,VALID,951.555,VALID,26.5417,VALID,116,VALID,0.45149,
2007-02-15, 18:13:00,VALID,919.762,VALID,0,VALID,69.8353,VALID,452.081,VALID,26.5618,VALID,124,VALID,0.945131,
2007-02-15, 18:14:00,VALID,919.722,VALID,0,VALID,71.5367,VALID,418.645,VALID,26.3614,VALID,119,VALID,1.15516,
2007-02-15, 18:15:00,VALID,919.708,VALID,0,VALID,73.3652,VALID,355.086,VALID,26.3097,VALID,133,VALID,0.928089,
2007-02-15, 18:16:00,VALID,919.698,VALID,0,VALID,72.3734,VALID,346.681,VALID,26.1345,VALID,137,VALID,0.803961,
2007-02-15, 18:17:00,VALID,919.689,VALID,0,VALID,72.8693,VALID,362.422,VALID,26.025,VALID,117,VALID,1.12841,
2007-02-15, 18:18:00,VALID,919.677,VALID,0,VALID,73.4263,VALID,489.15,VALID,25.9539,VALID,125,VALID,1.19606,
2007-02-15, 18:19:00,VALID,919.668,VALID,0,VALID,72.91,VALID,525.727,VALID,25.7852,VALID,146,VALID,0.729353,
2007-02-15, 18:20:00,VALID,919.656,VALID,0,VALID,73.0956,VALID,685.109,VALID,25.7636,VALID,207,VALID,0.816584,
2007-02-15, 18:21:00,VALID,919.651,VALID,0,VALID,73.5356,VALID,753.151,VALID,25.96,VALID,232,VALID,0.521839,
2007-02-15, 18:22:00,VALID,919.649,VALID,0,VALID,72.2284,VALID,846.274,VALID,26.0631,VALID,140,VALID,1.50818,
2007-02-15, 18:23:00,VALID,919.633,VALID,0,VALID,71.969,VALID,1099.37,VALID,25.8857,VALID,137,VALID,1.86222,
2007-02-15, 18:24:00,VALID,919.622,VALID,0,VALID,74.5796,VALID,1075.46,VALID,25.9154,VALID,152,VALID,1.11458,
2007-02-15, 18:25:00,VALID,919.602,VALID,0,VALID,74.1727,VALID,1052.01,VALID,26.087,VALID,90,VALID,1.0767,
2007-02-15, 18:26:00,VALID,919.596,VALID,0,VALID,73.7594,VALID,781.848,VALID,26.2929,VALID,143,VALID,1.12946,
2007-02-15, 18:27:00,VALID,919.587,VALID,0,VALID,74.1015,VALID,909.544,VALID,26.3549,VALID,123,VALID,1.42205,
2007-02-15, 18:28:00,VALID,919.587,VALID,0,VALID,73.364,VALID,932.995,VALID,26.4379,VALID,140,VALID,2.03343,
2007-02-15, 18:29:00,VALID,919.578,VALID,0,VALID,73.4517,VALID,1063.39,VALID,26.2053,VALID,130,VALID,2.05051,
2007-02-15, 18:30:00,VALID,919.556,VALID,0,VALID,72.4497,VALID,895.773,VALID,26.2541,VALID,107,VALID,1.09596,
2007-02-15, 18:31:00,VALID,919.546,VALID,0,VALID,73.2508,VALID,933.012,VALID,26.5307,VALID,167,VALID,1.00372,
2007-02-15, 18:32:00,VALID,919.521,VALID,0,VALID,73.3487,VALID,483.92,VALID,26.671,VALID,165,VALID,0.744048,
2007-02-15, 18:33:00,VALID,919.516,VALID,0,VALID,74.1651,VALID,254.712,VALID,26.8487,VALID,268,VALID,0.976004,
2007-02-15, 18:34:00,VALID,919.498,VALID,0,VALID,74.4842,VALID,220.547,VALID,26.9583,VALID,285,VALID,1.03706,
2007-02-15, 18:35:00,VALID,919.503,VALID,0,VALID,75.2129,VALID,188.963,VALID,26.9838,VALID,260,VALID,1.40458,
2007-02-15, 18:36:00,VALID,919.488,VALID,0,VALID,76.0636,VALID,179.012,VALID,26.9777,VALID,278,VALID,2.26493,
2007-02-15, 18:37:00,VALID,919.489,VALID,0,VALID,75.6745,VALID,169.91,VALID,26.8477,VALID,275,VALID,1.54119,
2007-02-15, 18:38:00,VALID,919.471,VALID,0,VALID,75.1709,VALID,162.507,VALID,26.5239,VALID,253,VALID,1.08931,
2007-02-15, 18:39:00,VALID,919.462,VALID,0,VALID,78.3855,VALID,169.367,VALID,26.2958,VALID,252,VALID,0.543786,
2007-02-15, 18:40:00,VALID,919.445,VALID,0,VALID,78.856,VALID,177.178,VALID,26.2179,VALID,277,VALID,0.689631,
2007-02-15, 18:41:00,VALID,919.44,VALID,0,VALID,78.4771,VALID,189.421,VALID,26.0657,VALID,274,VALID,1.01791,
2007-02-15, 18:42:00,VALID,919.428,VALID,0,VALID,79.3494,VALID,201.63,VALID,26.0204,VALID,306,VALID,1.11566,
2007-02-15, 18:43:00,VALID,919.417,VALID,0,VALID,78.6729,VALID,202.836,VALID,25.9461,VALID,283,VALID,1.59756,
2007-02-15, 18:44:00,VALID,919.424,VALID,0,VALID,79.4944,VALID,211.87,VALID,25.8663,VALID,276,VALID,1.57778,
2007-02-15, 18:45:01,VALID,919.418,VALID,0,VALID,80.2815,VALID,220.547,VALID,25.7338,VALID,276,VALID,1.8168,
2007-02-15, 18:46:00,VALID,919.428,VALID,0,VALID,80.9974,VALID,221.311,VALID,25.6851,VALID,281,VALID,1.48474,
2007-02-15, 18:47:00,VALID,919.435,VALID,0,VALID,80.869,VALID,222.194,VALID,25.6599,VALID,285,VALID,1.40879,
2007-02-15, 18:48:00,VALID,919.43,VALID,0,VALID,80.8384,VALID,221.515,VALID,25.6463,VALID,278,VALID,1.43071,
2007-02-15, 18:49:00,VALID,919.42,VALID,0,VALID,81.1703,VALID,229.122,VALID,25.6531,VALID,283,VALID,1.09175,
2007-02-15, 18:50:00,VALID,919.413,VALID,0,VALID,80.5956,VALID,242.011,VALID,25.6854,VALID,290,VALID,1.26816,
2007-02-15, 18:51:00,VALID,919.391,VALID,0,VALID,79.8644,VALID,246.188,VALID,25.656,VALID,276,VALID,1.13114,
2007-02-15, 18:52:00,VALID,919.385,VALID,0,VALID,80.2789,VALID,247.547,VALID,25.634,VALID,272,VALID,0.859933,
2007-02-15, 18:53:01,VALID,919.402,VALID,0,VALID,80.3082,VALID,251.622,VALID,25.6922,VALID,188,VALID,0.380526,
2007-02-15, 18:54:01,VALID,919.379,VALID,0,VALID,79.4702,VALID,476.142,VALID,25.667,VALID,243,VALID,0.548118,
2007-02-15, 18:55:01,VALID,919.372,VALID,0,VALID,78.1248,VALID,270.284,VALID,25.6082,VALID,124,VALID,0.587636,
2007-02-15, 18:56:00,VALID,919.365,VALID,0,VALID,78.7683,VALID,260.741,VALID,25.528,VALID,127,VALID,0.184549,
2007-02-15, 18:57:01,VALID,919.356,VALID,0,VALID,79.4918,VALID,259.195,VALID,25.5768,VALID,89,VALID,0.27381,
2007-02-15, 18:58:00,VALID,919.355,VALID,0,VALID,80.1747,VALID,255.035,VALID,25.6893,VALID,90,VALID,0.371875,
2007-02-15, 18:59:01,VALID,919.364,VALID,0,VALID,79.0824,VALID,253.252,VALID,25.7251,VALID,146,VALID,0.260356,
2007-02-15, 19:00:00,VALID,919.379,VALID,0,VALID,78.4669,VALID,255.494,VALID,25.7283,VALID,253,VALID,0.677379,
2007-02-15, 19:01:00,VALID,919.374,VALID,0,VALID,79.7131,VALID,264.85,VALID,25.7219,VALID,216,VALID,0.516513,
2007-02-15, 19:02:00,VALID,919.367,VALID,0,VALID,80.8295,VALID,274.631,VALID,25.8059,VALID,267,VALID,1.07292,
2007-02-15, 19:03:01,VALID,919.361,VALID,0,VALID,79.0302,VALID,287.367,VALID,25.8602,VALID,280,VALID,1.23084,
2007-02-15, 19:04:00,VALID,919.355,VALID,0,VALID,78.4822,VALID,294.889,VALID,25.8608,VALID,271,VALID,0.978087,
2007-02-15, 19:05:01,VALID,919.319,VALID,0,VALID,78.9488,VALID,299.134,VALID,25.897,VALID,271,VALID,0.515053,
2007-02-15, 19:06:01,VALID,919.293,VALID,0,VALID,77.8871,VALID,301.698,VALID,25.8931,VALID,206,VALID,0.266715,
2007-02-15, 19:07:00,VALID,919.248,VALID,0,VALID,77.1521,VALID,324.724,VALID,25.8605,VALID,135,VALID,0.455256,
2007-02-15, 19:08:00,VALID,919.21,VALID,0,VALID,77.8451,VALID,876.041,VALID,25.8221,VALID,124,VALID,0.444336,
2007-02-15, 19:09:00,VALID,919.177,VALID,0,VALID,78.4427,VALID,1083.84,VALID,26.026,VALID,125,VALID,0.14623,
2007-02-15, 19:10:01,VALID,919.142,VALID,0,VALID,77.3123,VALID,1084.18,VALID,26.334,VALID,126,VALID,0.734184,
2007-02-15, 19:11:00,VALID,919.136,VALID,0,VALID,75.3629,VALID,1100.39,VALID,26.4335,VALID,133,VALID,0.994474,
2007-02-15, 19:12:01,VALID,919.124,VALID,0,VALID,75.9885,VALID,1114.52,VALID,26.705,VALID,115,VALID,0.533918,
2007-02-15, 19:13:00,VALID,919.132,VALID,0,VALID,73.0537,VALID,1126.49,VALID,26.7696,VALID,121,VALID,1.01135,
2007-02-15, 19:14:01,VALID,919.132,VALID,0,VALID,75.4176,VALID,1021.69,VALID,26.9532,VALID,175,VALID,1.05897,
2007-02-15, 19:15:01,VALID,919.137,VALID,0,VALID,75.4596,VALID,1019.9,VALID,27.2318,VALID,241,VALID,0.729539,
2007-02-15, 19:16:01,VALID,919.123,VALID,0,VALID,72.2437,VALID,1003.3,VALID,27.3889,VALID,329,VALID,0.541788,
2007-02-15, 19:17:01,VALID,919.115,VALID,0,VALID,72.526,VALID,1050.26,VALID,27.4212,VALID,209,VALID,0.852108,
2007-02-15, 19:18:00,VALID,919.092,VALID,0,VALID,73.0639,VALID,1109.04,VALID,27.5893,VALID,226,VALID,0.625381,
2007-02-15, 19:19:00,VALID,919.073,VALID,0,VALID,72.526,VALID,1096.21,VALID,27.7959,VALID,144,VALID,0.857558,
2007-02-15, 19:20:00,VALID,919.028,VALID,0,VALID,70.5563,VALID,1086.6,VALID,27.8641,VALID,91,VALID,0.799665,
2007-02-15, 19:21:01,VALID,919.014,VALID,0,VALID,70.9771,VALID,1042.61,VALID,27.9119,VALID,161,VALID,1.0026,
2007-02-15, 19:22:00,VALID,918.997,VALID,0,VALID,70.8424,VALID,1099.37,VALID,27.7075,VALID,172,VALID,1.0714,
2007-02-15, 19:23:00,VALID,918.968,VALID,0,VALID,70.0591,VALID,1089.49,VALID,27.6691,VALID,195,VALID,1.28956,
2007-02-15, 19:24:00,VALID,918.936,VALID,0,VALID,70.1799,VALID,1095.84,VALID,27.6368,VALID,268,VALID,2.42569,
2007-02-15, 19:25:00,VALID,918.946,VALID,0,VALID,71.7312,VALID,1098.83,VALID,27.6562,VALID,268,VALID,1.81844,
2007-02-15, 19:26:00,VALID,918.934,VALID,0,VALID,68.4009,VALID,971.66,VALID,27.8562,VALID,195,VALID,0.42832,
2007-02-15, 19:27:00,VALID,918.912,VALID,0,VALID,70.0222,VALID,763.849,VALID,28.0491,VALID,265,VALID,2.10652,
2007-02-15, 19:28:00,VALID,918.874,VALID,0,VALID,69.3775,VALID,502.055,VALID,28.0265,VALID,247,VALID,2.34803,
2007-02-15, 19:29:01,VALID,918.838,VALID,0,VALID,69.0939,VALID,470.284,VALID,27.6148,VALID,208,VALID,1.43839,
2007-02-15, 19:30:00,VALID,918.793,VALID,0,VALID,70.0463,VALID,631.449,VALID,27.0649,VALID,136,VALID,2.40067,
2007-02-15, 19:31:00,VALID,918.763,VALID,0,VALID,72.9049,VALID,666.022,VALID,26.5543,VALID,134,VALID,1.48333,
2007-02-15, 19:32:00,VALID,918.724,VALID,0,VALID,75.2294,VALID,568.926,VALID,26.5317,VALID,269,VALID,1.12845,
2007-02-15, 19:33:00,VALID,918.694,VALID,0,VALID,74.7284,VALID,439.43,VALID,26.7809,VALID,274,VALID,0.749399,
2007-02-15, 19:34:01,VALID,918.667,VALID,0,VALID,74.6877,VALID,389.795,VALID,26.9838,VALID,260,VALID,0.68936,
2007-02-15, 19:35:00,VALID,918.674,VALID,0,VALID,75.3108,VALID,367.482,VALID,27.1913,VALID,261,VALID,1.17624,
2007-02-15, 19:36:00,VALID,918.664,VALID,0,VALID,75.321,VALID,352.505,VALID,27.3336,VALID,265,VALID,1.52172,
2007-02-15, 19:37:00,VALID,918.634,VALID,0,VALID,75.7914,VALID,344.083,VALID,27.3889,VALID,282,VALID,1.41597,
2007-02-15, 19:38:00,VALID,918.624,VALID,0,VALID,75.9504,VALID,336.068,VALID,27.4525,VALID,279,VALID,1.53981,
2007-02-15, 19:39:01,VALID,918.618,VALID,0,VALID,74.764,VALID,322.228,VALID,27.4169,VALID,275,VALID,1.58398,
2007-02-15, 19:40:00,VALID,918.612,VALID,0,VALID,75.4507,VALID,290.61,VALID,27.3346,VALID,276,VALID,1.30625,
2007-02-15, 19:41:00,VALID,918.6,VALID,0,VALID,75.808,VALID,291.272,VALID,27.233,VALID,286,VALID,1.12795,
2007-02-15, 19:42:00,VALID,918.583,VALID,0,VALID,77.1203,VALID,318.543,VALID,27.2504,VALID,278,VALID,0.822545,
2007-02-15, 19:43:01,VALID,918.573,VALID,0,VALID,76.5468,VALID,310.206,VALID,27.3495,VALID,269,VALID,1.00071,
2007-02-15, 19:44:01,VALID,918.547,VALID,0,VALID,76.1195,VALID,276.822,VALID,27.4177,VALID,274,VALID,0.830078,
2007-02-15, 19:45:00,VALID,918.531,VALID,0,VALID,75.0412,VALID,253.897,VALID,27.3606,VALID,267,VALID,0.28404,
2007-02-15, 19:46:00,VALID,918.51,VALID,0,VALID,74.6012,VALID,256.733,VALID,27.325,VALID,248,VALID,0.439787,
2007-02-15, 19:47:01,VALID,918.498,VALID,0,VALID,74.6317,VALID,254.05,VALID,27.3021,VALID,218,VALID,0.186806,
2007-02-15, 19:48:01,VALID,918.489,VALID,0,VALID,74.6661,VALID,236.135,VALID,27.2026,VALID,116,VALID,0.570676,
2007-02-15, 19:49:00,VALID,918.469,VALID,0,VALID,75.6134,VALID,238.717,VALID,27.1821,VALID,48,VALID,0.580487,
2007-02-15, 19:50:01,VALID,918.485,VALID,0,VALID,76.1055,VALID,250.552,VALID,27.1246,VALID,348,VALID,0.3748,
2007-02-15, 19:51:00,VALID,918.495,VALID,0,VALID,75.4456,VALID,270.708,VALID,27.0302,VALID,228,VALID,0.81141,
2007-02-15, 19:52:00,VALID,918.471,VALID,0,VALID,74.2096,VALID,339.413,VALID,26.5597,VALID,133,VALID,1.3334,
2007-02-15, 19:53:00,VALID,918.445,VALID,0,VALID,76.6879,VALID,1041.37,VALID,26.3267,VALID,227,VALID,0.852095,
2007-02-15, 19:54:01,VALID,918.44,VALID,0,VALID,77.854,VALID,893.837,VALID,26.5846,VALID,278,VALID,0.717478,
2007-02-15, 19:55:00,VALID,918.418,VALID,0,VALID,76.7553,VALID,1127.97,VALID,26.8945,VALID,276,VALID,0.445313,
2007-02-15, 19:56:00,VALID,918.399,VALID,0,VALID,75.691,VALID,1064.27,VALID,27.3836,VALID,185,VALID,0.240734,
2007-02-15, 19:57:00,VALID,918.376,VALID,0,VALID,71.6816,VALID,821.482,VALID,27.5857,VALID,178,VALID,1.07626,
2007-02-15, 19:58:00,VALID,918.345,VALID,0,VALID,72.161,VALID,1059.89,VALID,27.3519,VALID,164,VALID,0.59375,
2007-02-15, 19:59:00,VALID,918.315,VALID,0,VALID,72.7676,VALID,1072.9,VALID,27.6145,VALID,331,VALID,0.28404,
2007-02-15, 20:00:00,VALID,918.284,VALID,0,VALID,70.0959,VALID,832.502,VALID,27.8056,VALID,154,VALID,1.21895,
2007-02-15, 20:01:00,VALID,918.274,VALID,0,VALID,72.2004,VALID,927.306,VALID,27.9439,VALID,266,VALID,0.96875,
2007-02-15, 20:02:01,VALID,918.263,VALID,0,VALID,71.9487,VALID,1037.97,VALID,28.1242,VALID,283,VALID,1.22542,
2007-02-15, 20:03:00,VALID,918.25,VALID,0,VALID,69.9713,VALID,819.342,VALID,28.3326,VALID,206,VALID,0.600229,
2007-02-15, 20:04:00,VALID,918.235,VALID,0,VALID,68.3424,VALID,1018.56,VALID,28.4835,VALID,14,VALID,0.873402,
2007-02-15, 20:05:01,VALID,918.22,VALID,0,VALID,68.8994,VALID,1003.97,VALID,28.6161,VALID,100,VALID,0.556784,
2007-02-15, 20:06:01,VALID,918.193,VALID,0,VALID,67.6837,VALID,1001.72,VALID,28.791,VALID,152,VALID,0.975836,
2007-02-15, 20:07:00,VALID,918.145,VALID,0,VALID,66.8775,VALID,1009.49,VALID,28.8457,VALID,68,VALID,0.605556,
2007-02-15, 20:08:01,VALID,918.11,VALID,0,VALID,66.1959,VALID,1026.78,VALID,28.8417,VALID,260,VALID,0.882813,
2007-02-15, 20:09:01,VALID,918.077,VALID,0,VALID,65.1812,VALID,1050.67,VALID,28.6944,VALID,185,VALID,1.13318,
2007-02-15, 20:10:00,VALID,918.037,VALID,0,VALID,64.9586,VALID,1063.63,VALID,28.4799,VALID,108,VALID,1.01004,
2007-02-15, 20:11:00,VALID,917.991,VALID,0,VALID,64.5848,VALID,1077.06,VALID,28.5568,VALID,124,VALID,0.793403,
2007-02-15, 20:12:00,VALID,917.933,VALID,0,VALID,66.3167,VALID,1079.18,VALID,28.7432,VALID,214,VALID,0.665153,
2007-02-15, 20:13:01,VALID,917.908,VALID,0,VALID,67.0479,VALID,1092.02,VALID,28.9811,VALID,229,VALID,0.482067,
2007-02-15, 20:14:00,VALID,917.897,VALID,0,VALID,65.934,VALID,530.108,VALID,29.1844,VALID,169,VALID,0.827217,
2007-02-15, 20:15:00,VALID,917.886,VALID,0,VALID,65.8246,VALID,365.614,VALID,29.0558,VALID,213,VALID,0.424479,
2007-02-15, 20:16:00,VALID,917.873,VALID,0,VALID,66.5901,VALID,596.978,VALID,29.1173,VALID,204,VALID,1.01708,
2007-02-15, 20:17:01,VALID,917.857,VALID,0,VALID,67.8922,VALID,457.226,VALID,29.1367,VALID,273,VALID,2.05469,
2007-02-15, 20:18:00,VALID,917.831,VALID,0,VALID,66.0827,VALID,456.564,VALID,28.9911,VALID,313,VALID,1.37682,
2007-02-15, 20:19:00,VALID,917.805,VALID,0,VALID,68.1974,VALID,410.104,VALID,28.712,VALID,278,VALID,1.32701,
2007-02-15, 20:20:00,VALID,917.784,VALID,0,VALID,68.9172,VALID,346.833,VALID,28.4663,VALID,263,VALID,1.06688,
2007-02-15, 20:21:00,VALID,917.764,VALID,0,VALID,69.2071,VALID,308.966,VALID,28.3014,VALID,269,VALID,0.828125,
2007-02-15, 20:22:00,VALID,917.732,VALID,0,VALID,69.7272,VALID,271.88,VALID,28.1915,VALID,354,VALID,0.468006,
2007-02-15, 20:23:00,VALID,917.707,VALID,0,VALID,68.406,VALID,247.241,VALID,28.1559,VALID,321,VALID,0.797585,
2007-02-15, 20:24:00,VALID,917.712,VALID,0,VALID,70.1621,VALID,228.817,VALID,28.0212,VALID,277,VALID,1.51353,
2007-02-15, 20:25:00,VALID,917.711,VALID,0,VALID,70.7025,VALID,216.115,VALID,27.9397,VALID,285,VALID,1.41197,
2007-02-15, 20:26:00,VALID,917.677,VALID,0,VALID,71.7032,VALID,209.289,VALID,27.7364,VALID,265,VALID,0.940696,
2007-02-15, 20:27:01,VALID,917.63,VALID,0,VALID,73.0181,VALID,195.789,VALID,27.5467,VALID,310,VALID,0.834918,
2007-02-15, 20:28:00,VALID,917.599,VALID,0,VALID,74.3787,VALID,187.333,VALID,27.4889,VALID,235,VALID,0.713867,
2007-02-15, 20:29:00,VALID,917.54,VALID,0,VALID,74.291,VALID,184.446,VALID,27.3531,VALID,251,VALID,0.991211,
2007-02-15, 20:30:01,VALID,917.506,VALID,0,VALID,74.5872,VALID,182.391,VALID,27.1573,VALID,231,VALID,0.431593,
2007-02-15, 20:31:00,VALID,917.467,VALID,0,VALID,74.792,VALID,190.304,VALID,26.9714,VALID,108,VALID,0.543968,
2007-02-15, 20:32:00,VALID,917.455,VALID,0,VALID,76.1691,VALID,211.7,VALID,26.8783,VALID,179,VALID,1.13743,
2007-02-15, 20:33:01,VALID,917.431,VALID,0,VALID,75.7546,VALID,229.971,VALID,26.6169,VALID,280,VALID,1.14807,
2007-02-15, 20:34:01,VALID,917.445,VALID,0,VALID,77.9303,VALID,236.662,VALID,26.5587,VALID,274,VALID,1.82013,
2007-02-15, 20:35:00,VALID,917.445,VALID,0,VALID,77.9112,VALID,274.665,VALID,26.5462,VALID,277,VALID,1.83345,
2007-02-15, 20:36:01,VALID,917.454,VALID,0,VALID,78.21,VALID,256.954,VALID,26.498,VALID,275,VALID,1.36886,
2007-02-15, 20:37:01,VALID,917.445,VALID,0,VALID,78.8052,VALID,216.76,VALID,26.5462,VALID,290,VALID,1.23903,
2007-02-15, 20:38:01,VALID,917.44,VALID,0,VALID,76.8838,VALID,195.517,VALID,26.6205,VALID,256,VALID,0.926669,
2007-02-15, 20:39:01,VALID,917.418,VALID,0,VALID,75.663,VALID,179.284,VALID,26.5727,VALID,267,VALID,1.31288,
2007-02-15, 20:40:00,VALID,917.37,VALID,0,VALID,76.7451,VALID,158.856,VALID,26.5662,VALID,276,VALID,1.00109,
2007-02-15, 20:41:01,VALID,917.317,VALID,0,VALID,76.6307,VALID,143.182,VALID,26.6021,VALID,280,VALID,1.23642,